TPC341 KSAN-KTUS

Flight info

Callsign TPC341
Flight time 0h 53m
Altitude 39000
Route ZZOOO4 GBN DINGO6
Aircraft B738/M-SDE2E3FGHIRWXY/LB1

Departure

Time 2026-04-24 00:45
Airport San Diego International Airport (KSAN)

Arrival

Time 2026-04-24 01:38
Airport Tucson International Airport (KTUS)
Time Latitude Longitude Altitude Speed Heading
2026-04-24 00:22 32.73423 -117.17933 20 ft 0 kts 199°
2026-04-24 00:37 32.73411 -117.17940 25 ft 2 kts 214°
2026-04-24 00:38 32.73407 -117.17944 24 ft 0 kts 224°
2026-04-24 00:42 32.73403 -117.17947 23 ft 2 kts 207°
2026-04-24 00:42 32.73366 -117.17950 24 ft 8 kts 186°
2026-04-24 00:43 32.73298 -117.17970 25 ft 14 kts 193°
2026-04-24 00:43 32.73219 -117.17926 25 ft 15 kts 108°
2026-04-24 00:43 32.73192 -117.17807 25 ft 15 kts 104°
2026-04-24 00:43 32.73166 -117.17693 26 ft 14 kts 108°
2026-04-24 00:44 32.73131 -117.17589 25 ft 13 kts 123°
2026-04-24 00:44 32.73056 -117.17529 25 ft 13 kts 165°
2026-04-24 00:44 32.73027 -117.17606 25 ft 15 kts 285°
2026-04-24 00:44 32.73141 -117.18080 23 ft 112 kts 286°
2026-04-24 00:45 32.73445 -117.19302 274 ft 183 kts 286°
2026-04-24 00:45 32.73832 -117.20848 1317 ft 207 kts 285°
2026-04-24 00:45 32.74258 -117.22601 2039 ft 234 kts 286°
2026-04-24 00:45 32.74689 -117.24454 2989 ft 234 kts 285°
2026-04-24 00:46 32.75141 -117.26334 3839 ft 238 kts 285°
2026-04-24 00:46 32.75599 -117.28218 4757 ft 243 kts 286°
2026-04-24 00:46 32.76088 -117.30136 5882 ft 242 kts 286°
2026-04-24 00:46 32.76534 -117.32062 6959 ft 244 kts 278°
2026-04-24 00:47 32.76275 -117.34044 7934 ft 248 kts 247°
2026-04-24 00:47 32.75272 -117.35714 9042 ft 251 kts 226°
2026-04-24 00:47 32.73772 -117.36802 10044 ft 262 kts 196°
2026-04-24 00:47 32.71919 -117.36767 10972 ft 274 kts 169°
2026-04-24 00:48 32.70178 -117.35741 11859 ft 288 kts 145°
2026-04-24 00:48 32.68821 -117.33946 12766 ft 297 kts 128°
2026-04-24 00:48 32.67640 -117.31929 13657 ft 303 kts 128°
2026-04-24 00:48 32.66412 -117.29864 14464 ft 309 kts 129°
2026-04-24 00:49 32.65137 -117.27783 15277 ft 314 kts 130°
2026-04-24 00:49 32.63835 -117.25676 16102 ft 319 kts 127°
2026-04-24 00:49 32.62954 -117.23202 16777 ft 336 kts 101°
2026-04-24 00:49 32.62663 -117.20349 17023 ft 362 kts 95°
2026-04-24 00:50 32.62437 -117.17265 17242 ft 388 kts 95°
2026-04-24 00:50 32.62175 -117.13983 17415 ft 412 kts 96°
2026-04-24 00:50 32.62043 -117.10500 17552 ft 434 kts 84°
2026-04-24 00:50 32.62834 -117.06993 17703 ft 450 kts 66°
2026-04-24 00:51 32.64079 -117.03514 17851 ft 465 kts 65°
2026-04-24 00:51 32.65299 -116.99968 18215 ft 474 kts 66°
2026-04-24 00:51 32.66461 -116.96275 18691 ft 478 kts 72°
2026-04-24 00:51 32.66927 -116.92356 19163 ft 483 kts 89°
2026-04-24 00:52 32.66919 -116.88362 19687 ft 485 kts 90°
2026-04-24 00:52 32.66923 -116.84345 20099 ft 491 kts 89°
2026-04-24 00:52 32.66983 -116.80269 20452 ft 497 kts 88°
2026-04-24 00:52 32.67079 -116.76159 20919 ft 499 kts 88°
2026-04-24 00:53 32.67155 -116.72031 21401 ft 502 kts 90°
2026-04-24 00:53 32.67108 -116.67876 21821 ft 505 kts 91°
2026-04-24 00:53 32.67000 -116.63697 22252 ft 508 kts 92°
2026-04-24 00:53 32.66888 -116.59493 22607 ft 512 kts 92°
2026-04-24 00:54 32.66793 -116.55252 22988 ft 516 kts 91°
2026-04-24 00:54 32.66715 -116.50990 23384 ft 518 kts 91°
2026-04-24 00:54 32.66648 -116.46706 23710 ft 521 kts 91°
2026-04-24 00:54 32.66584 -116.42451 23950 ft 524 kts 90°
2026-04-24 00:55 32.66736 -116.38117 24207 ft 527 kts 84°
2026-04-24 00:55 32.67134 -116.33786 24505 ft 529 kts 82°
2026-04-24 00:55 32.67622 -116.29444 24790 ft 531 kts 82°
2026-04-24 00:55 32.68108 -116.25087 25050 ft 534 kts 82°
2026-04-24 00:56 32.68557 -116.20710 25388 ft 534 kts 83°
2026-04-24 00:56 32.68969 -116.16321 25669 ft 536 kts 83°
2026-04-24 00:56 32.69358 -116.11906 25886 ft 538 kts 84°
2026-04-24 00:56 32.69741 -116.07489 26199 ft 539 kts 84°
2026-04-24 00:57 32.70129 -116.03063 26504 ft 539 kts 83°
2026-04-24 00:57 32.70529 -115.98635 26828 ft 539 kts 83°
2026-04-24 00:57 32.71351 -115.89799 27588 ft 537 kts 83°
2026-04-24 00:58 32.71762 -115.85386 27955 ft 537 kts 83°
2026-04-24 00:58 32.72169 -115.80980 28302 ft 538 kts 83°
2026-04-24 00:58 32.72573 -115.76568 28672 ft 538 kts 83°
2026-04-24 00:58 32.72969 -115.72208 29095 ft 537 kts 84°
2026-04-24 00:59 32.73351 -115.67803 29475 ft 537 kts 86°
2026-04-24 00:59 32.73732 -115.63364 29668 ft 542 kts 83°
2026-04-24 00:59 32.74116 -115.58912 30173 ft 538 kts 83°
2026-04-24 00:59 32.74534 -115.54551 30680 ft 534 kts 82°
2026-04-24 01:00 32.74947 -115.50167 31114 ft 533 kts 84°
2026-04-24 01:00 32.75194 -115.45766 31490 ft 533 kts 88°
2026-04-24 01:00 32.75301 -115.41359 31854 ft 533 kts 90°
2026-04-24 01:00 32.75350 -115.36953 32265 ft 532 kts 90°
2026-04-24 01:01 32.75392 -115.32566 32738 ft 531 kts 90°
2026-04-24 01:01 32.75448 -115.28183 33136 ft 531 kts 89°
2026-04-24 01:01 32.75524 -115.23800 33465 ft 532 kts 89°
2026-04-24 01:01 32.75613 -115.19409 33821 ft 532 kts 89°
2026-04-24 01:02 32.75710 -115.15076 34150 ft 532 kts 89°
2026-04-24 01:02 32.75811 -115.10684 34434 ft 532 kts 89°
2026-04-24 01:02 32.75910 -115.06280 34694 ft 534 kts 89°
2026-04-24 01:02 32.76006 -115.01868 34958 ft 535 kts 89°
2026-04-24 01:03 32.76100 -114.97445 35207 ft 537 kts 89°
2026-04-24 01:03 32.76191 -114.92998 35409 ft 539 kts 89°
2026-04-24 01:03 32.76280 -114.88551 35704 ft 539 kts 89°
2026-04-24 01:03 32.76367 -114.84105 36007 ft 539 kts 89°
2026-04-24 01:04 32.76454 -114.79635 36281 ft 540 kts 89°
2026-04-24 01:04 32.76539 -114.75173 36531 ft 541 kts 89°
2026-04-24 01:04 32.76622 -114.70706 36799 ft 542 kts 89°
2026-04-24 01:04 32.76705 -114.66230 37085 ft 542 kts 89°
2026-04-24 01:05 32.76786 -114.61750 37352 ft 543 kts 89°
2026-04-24 01:05 32.76862 -114.57266 37596 ft 544 kts 89°
2026-04-24 01:05 32.76928 -114.52772 37845 ft 544 kts 90°
2026-04-24 01:05 32.76988 -114.48271 38116 ft 545 kts 90°
2026-04-24 01:06 32.77047 -114.43771 38386 ft 545 kts 90°
2026-04-24 01:06 32.77104 -114.39260 38615 ft 546 kts 90°
2026-04-24 01:06 32.77160 -114.34797 38848 ft 544 kts 90°
2026-04-24 01:07 32.77272 -114.25739 38879 ft 552 kts 90°
2026-04-24 01:07 32.77380 -114.16598 38868 ft 550 kts 90°
2026-04-24 01:08 32.77480 -114.07572 38872 ft 545 kts 90°
2026-04-24 01:08 32.77572 -113.98572 38881 ft 544 kts 90°
2026-04-24 01:09 32.78405 -113.89719 38882 ft 542 kts 78°
2026-04-24 01:09 32.79878 -113.80947 38870 ft 541 kts 78°
2026-04-24 01:10 32.81206 -113.72101 38867 ft 541 kts 79°
2026-04-24 01:10 32.82431 -113.63330 38873 ft 542 kts 79°
2026-04-24 01:11 32.83675 -113.54473 38870 ft 543 kts 79°
2026-04-24 01:11 32.84925 -113.45578 38869 ft 544 kts 79°
2026-04-24 01:12 32.86159 -113.36740 38872 ft 545 kts 79°
2026-04-24 01:12 32.87390 -113.27868 38872 ft 545 kts 79°
2026-04-24 01:13 32.88616 -113.18975 38859 ft 545 kts 80°
2026-04-24 01:13 32.89843 -113.10034 38308 ft 549 kts 80°
2026-04-24 01:13 32.90454 -113.05563 37668 ft 545 kts 80°
2026-04-24 01:14 32.91055 -113.01152 36972 ft 544 kts 80°
2026-04-24 01:14 32.91658 -112.96716 36312 ft 542 kts 80°
2026-04-24 01:14 32.92258 -112.92289 35635 ft 541 kts 80°
2026-04-24 01:14 32.92856 -112.87861 34895 ft 541 kts 80°
2026-04-24 01:15 32.93451 -112.83448 34142 ft 540 kts 80°
2026-04-24 01:15 32.94046 -112.79026 33261 ft 541 kts 80°
2026-04-24 01:15 32.94636 -112.74626 32477 ft 538 kts 80°
2026-04-24 01:15 32.95219 -112.70268 31563 ft 538 kts 81°
2026-04-24 01:16 32.95602 -112.65849 30749 ft 535 kts 94°
2026-04-24 01:16 32.95223 -112.61509 30200 ft 524 kts 99°
2026-04-24 01:16 32.94774 -112.57171 29105 ft 528 kts 99°
2026-04-24 01:16 32.94333 -112.52833 27996 ft 529 kts 98°
2026-04-24 01:17 32.93909 -112.48471 26880 ft 531 kts 98°
2026-04-24 01:17 32.93500 -112.44092 25739 ft 533 kts 97°
2026-04-24 01:17 32.93103 -112.39732 24901 ft 528 kts 97°
2026-04-24 01:17 32.92716 -112.35424 24050 ft 523 kts 96°
2026-04-24 01:18 32.92329 -112.31136 23123 ft 519 kts 96°
2026-04-24 01:18 32.91942 -112.26876 22190 ft 513 kts 96°
2026-04-24 01:18 32.91558 -112.22688 21427 ft 504 kts 96°
2026-04-24 01:18 32.91309 -112.19982 21286 ft 491 kts 96°
2026-04-24 01:19 32.90942 -112.16006 20988 ft 477 kts 96°
2026-04-24 01:19 32.90444 -112.10658 20696 ft 493 kts 96°
2026-04-24 01:19 32.90192 -112.07965 20533 ft 495 kts 96°
2026-04-24 01:19 32.89814 -112.03916 20275 ft 490 kts 96°
2026-04-24 01:20 32.89315 -111.98593 19953 ft 487 kts 96°
2026-04-24 01:20 32.89018 -111.95933 19784 ft 485 kts 101°
2026-04-24 01:20 32.87927 -111.92175 19523 ft 480 kts 121°
2026-04-24 01:20 32.86024 -111.88970 19304 ft 472 kts 136°
2026-04-24 01:21 32.83570 -111.86458 19074 ft 463 kts 149°
2026-04-24 01:21 32.80903 -111.84318 18854 ft 461 kts 150°
2026-04-24 01:21 32.78241 -111.82203 18617 ft 460 kts 150°
2026-04-24 01:21 32.75590 -111.80078 18362 ft 459 kts 149°
2026-04-24 01:22 32.72960 -111.77940 17887 ft 455 kts 149°
2026-04-24 01:22 32.70364 -111.75806 17080 ft 450 kts 149°
2026-04-24 01:22 32.67807 -111.73692 16290 ft 444 kts 149°
2026-04-24 01:22 32.65328 -111.71640 15529 ft 438 kts 149°
2026-04-24 01:23 32.62842 -111.69586 14769 ft 433 kts 149°
2026-04-24 01:23 32.60374 -111.67551 14002 ft 429 kts 150°
2026-04-24 01:23 32.57931 -111.65540 13157 ft 425 kts 149°
2026-04-24 01:23 32.55571 -111.63447 12368 ft 424 kts 142°
2026-04-24 01:24 32.53531 -111.60939 11610 ft 423 kts 131°
2026-04-24 01:24 32.51824 -111.58128 11281 ft 420 kts 128°
2026-04-24 01:24 32.50122 -111.55330 11188 ft 413 kts 128°
2026-04-24 01:24 32.48457 -111.52658 11048 ft 393 kts 129°
2026-04-24 01:25 32.46852 -111.50112 10960 ft 375 kts 129°
2026-04-24 01:25 32.45321 -111.47696 10952 ft 362 kts 130°
2026-04-24 01:25 32.43778 -111.45268 10973 ft 382 kts 130°
2026-04-24 01:25 32.42122 -111.42668 10976 ft 408 kts 129°
2026-04-24 01:26 32.40396 -111.39944 10976 ft 417 kts 129°
2026-04-24 01:26 32.38693 -111.37248 10966 ft 414 kts 129°
2026-04-24 01:26 32.36958 -111.34507 10950 ft 414 kts 129°
2026-04-24 01:26 32.35325 -111.31694 10933 ft 417 kts 120°
2026-04-24 01:27 32.34387 -111.28457 10957 ft 418 kts 100°
2026-04-24 01:27 32.33906 -111.25094 10929 ft 408 kts 106°
2026-04-24 01:27 32.32754 -111.22152 10943 ft 384 kts 127°
2026-04-24 01:27 32.31064 -111.19850 10951 ft 360 kts 137°
2026-04-24 01:28 32.29335 -111.17821 10939 ft 341 kts 139°
2026-04-24 01:28 32.27690 -111.15923 10939 ft 319 kts 139°
2026-04-24 01:28 32.26122 -111.14117 10761 ft 313 kts 139°
2026-04-24 01:28 32.24558 -111.12328 10423 ft 313 kts 139°
2026-04-24 01:29 32.23006 -111.10543 10056 ft 311 kts 135°
2026-04-24 01:29 32.21681 -111.08408 9549 ft 316 kts 130°
2026-04-24 01:29 32.20192 -111.06569 9356 ft 307 kts 141°
2026-04-24 01:29 32.18640 -111.04861 9072 ft 304 kts 140°
2026-04-24 01:30 32.17055 -111.03231 8737 ft 300 kts 148°
2026-04-24 01:30 32.15346 -111.01842 8421 ft 298 kts 149°
2026-04-24 01:30 32.13646 -111.00468 8142 ft 294 kts 150°
2026-04-24 01:30 32.11939 -110.99167 7839 ft 291 kts 150°
2026-04-24 01:31 32.10245 -110.97833 7395 ft 294 kts 149°
2026-04-24 01:31 32.08569 -110.96491 7195 ft 288 kts 149°
2026-04-24 01:31 32.06949 -110.95234 7086 ft 278 kts 150°
2026-04-24 01:31 32.05347 -110.93974 7004 ft 268 kts 149°
2026-04-24 01:32 32.03854 -110.92796 7003 ft 256 kts 150°
2026-04-24 01:32 32.02389 -110.91691 6990 ft 245 kts 150°
2026-04-24 01:32 32.00966 -110.90544 6987 ft 245 kts 149°
2026-04-24 01:32 31.99578 -110.89422 6987 ft 244 kts 149°
2026-04-24 01:33 31.98191 -110.88315 6974 ft 235 kts 149°
2026-04-24 01:33 31.97034 -110.87059 6953 ft 222 kts 122°
2026-04-24 01:33 31.96657 -110.85340 6985 ft 224 kts 86°
2026-04-24 01:33 31.97115 -110.83614 6984 ft 220 kts 61°
2026-04-24 01:34 31.97956 -110.82139 6963 ft 215 kts 38°
2026-04-24 01:34 31.99259 -110.81429 6968 ft 204 kts
2026-04-24 01:34 32.00646 -110.81600 6995 ft 198 kts 345°
2026-04-24 01:34 32.01882 -110.82204 6777 ft 190 kts 319°
2026-04-24 01:35 32.02805 -110.83256 6464 ft 181 kts 312°
2026-04-24 01:35 32.03694 -110.84293 5998 ft 180 kts 313°
2026-04-24 01:35 32.04570 -110.85321 5625 ft 171 kts 313°
2026-04-24 01:35 32.05334 -110.86302 5398 ft 154 kts 308°
2026-04-24 01:36 32.05948 -110.87317 4915 ft 156 kts 306°
2026-04-24 01:36 32.06700 -110.88214 4534 ft 151 kts 314°
2026-04-24 01:36 32.07450 -110.89068 4165 ft 148 kts 315°
2026-04-24 01:36 32.08197 -110.89886 3725 ft 147 kts 313°
2026-04-24 01:37 32.08881 -110.90752 3332 ft 143 kts 311°
2026-04-24 01:37 32.09572 -110.91551 2948 ft 134 kts 315°
2026-04-24 01:37 32.10224 -110.92310 2704 ft 128 kts 313°
2026-04-24 01:37 32.10803 -110.92993 2630 ft 101 kts 314°
2026-04-24 01:38 32.11193 -110.93450 2617 ft 57 kts 315°
2026-04-24 01:38 32.11371 -110.93659 2610 ft 21 kts 316°
2026-04-24 01:38 32.11460 -110.93673 2607 ft 12 kts 53°
2026-04-24 01:38 32.11525 -110.93610 2605 ft 13 kts
2026-04-24 01:39 32.11597 -110.93678 2602 ft 14 kts 314°
2026-04-24 01:39 32.11689 -110.93791 2587 ft 28 kts 313°
2026-04-24 01:39 32.11853 -110.93982 2593 ft 35 kts 315°
2026-04-24 01:39 32.12023 -110.94184 2589 ft 34 kts 314°
2026-04-24 01:40 32.12189 -110.94376 2580 ft 34 kts 314°
2026-04-24 01:40 32.12357 -110.94570 2574 ft 34 kts 314°
2026-04-24 01:40 32.12498 -110.94719 2569 ft 16 kts 352°
2026-04-24 01:40 32.12586 -110.94640 2572 ft 16 kts 46°
2026-04-24 01:41 32.12630 -110.94582 2573 ft 5 kts 66°
2026-04-24 01:41 32.12618 -110.94556 2574 ft 2 kts 137°
2026-04-24 01:41 32.12604 -110.94538 2566 ft 4 kts 134°
2026-04-24 01:41 32.12581 -110.94555 2572 ft 5 kts 231°
2026-04-24 01:42 32.12556 -110.94570 2572 ft 3 kts 155°
2026-04-24 01:42 32.12554 -110.94559 2572 ft 0 kts 88°